Simultaneous Nadir Overpasses (SNOs) Predictions

Prediction of SNOs between AURA and NPP Satellite Orbit:

Table of predicted SNOs for the next 14.0 days since TLE Epoch: 10/19/2024
Index Date (AURA) Time (AURA) Lat,Lon (AURA) SZA (AURA ) Date (NPP) Time (NPP) Lat,Lon (NPP) SZA (NPP ) Distance(km) Time Diff (sec)
1 10/19/2024 04:23:22 80.90, 27.66 98.87 10/19/2024 04:24:26 80.90, 27.51 98.85 2.58 64
2 10/21/2024 15:37:40 80.86,-141.41 99.79 10/21/2024 15:36:54 80.86,-141.24 99.79 2.93 46
3 10/21/2024 16:27:01 -80.90, 26.85 80.29 10/21/2024 16:27:37 -80.90, 26.82 80.31 0.66 36
4 10/24/2024 03:41:18 -80.82,-142.78 79.30 10/24/2024 03:40:08 -80.82,-142.81 79.25 0.56 70
5 10/24/2024 04:30:36 80.90, 25.89 100.57 10/24/2024 04:30:49 80.89, 25.87 100.57 0.63 13
6 10/26/2024 16:34:10 -80.86, 24.59 78.54 10/26/2024 16:34:02 -80.86, 24.48 78.51 1.87 8
7 10/26/2024 17:22:47 81.67,-150.86 99.29 10/26/2024 17:24:00 81.31,-150.39 99.03 40.50 73
8 10/29/2024 04:37:37 80.86, 23.70 102.29 10/29/2024 04:37:13 80.86, 23.52 102.33 3.08 24
9 10/29/2024 05:26:57 -80.93,-167.66 77.84 10/29/2024 05:27:54 -80.93,-167.69 77.88 0.67 57
10 10/31/2024 16:41:02 -80.86, 22.92 76.93 10/31/2024 16:40:23 -80.86, 22.88 76.90 0.73 39



Historial Predications of SNOs between AURA and NPP
